Weather WX

World > North America > United States > Ohio

West Jefferson, Ohio Regional Weather

Lat: 41.57N, Lon: 84.56W
Wx Zone: OHZ054
Warning FLW WEATHER ALERT - FLASH FLOOD WATCH (More Info. Click Here) Warning
Feedback

West Jefferson, OH Regional Weather

Expires:201906162000;;172654
ASUS41 KCLE 161902
RWRCLE
OHIO REGIONAL WEATHER ROUNDUP
NATIONAL WEATHER SERVICE CLEVELAND, OH
300 PM EDT SUN JUN 16 2019

NOTE: "FAIR" INDICATES FEW OR NO CLOUDS BELOW 12,000 FEET WITH NO
SIGNIFICANT WEATHER AND/OR OBSTRUCTIONS TO VISIBILITY.


OHZ036-037-039>041-045>050-054>059-063>069-073>076-082>088-162000-
  CENTRAL AND SOUTHEAST OHIO
  
CITY           SKY/WX    TMP DP  RH WIND       PRES   REMARKS
COLUMBUS       CLOUDY    77  64  64 SW21G26   29.88S                  
OSU AIRPORT    PTSUNNY   79  68  69 SW14      29.88R                  
BOLTON FIELD   PTSUNNY   77  66  69 W18G25    29.90R                  
RICKENBACK AFB PTSUNNY   77  66  68 SW20      29.90R                  
NEWARK         CLOUDY    78  68  71 SW13G21   29.88R                  
MARION         CLOUDY    77  66  68 W10G22    29.87R                  
LANCASTER      FAIR      77  65  66 SW17G25   29.90R                  
ZANESVILLE     PTSUNNY   78  67  68 SW13G21   29.89S                  
NEW PHILLY     NOT AVBL                                               
$$
  

SKY/WX - Weather  TMP - Temperature  DP - Dew Point  RH - Relative Humidity
WIND - Wind Direction/Speed PRES - Barometric Pressure VSB - Visibility
WCI - Wind Chill Index E13G22 Wind - East Wind 13 mph/Gusts of 22 mph